[[{"header":{"parameterUnit":"m.s-1","parameterCategory":1,"la1":30.2991,"la2":30.254,"lo1":-89.0895,"lo2":-89.0444,"dy":0.0017,"dx":0.0017,"nx":28,"ny":28,"refTime":"2025-09-03T09:00:00:Z","depth":0,"parameterNumber":2,"parameterNumberName":"U-component_of_WINDS"},"data":[0,0,0,0,0,0,0,0,0,0,0,0,0,0,0,0,0,0,0,0,0,0,0,0,0,0,0,0,0,0,0,0,0,0,0,0,0,0,0,0,0,0,0,0,0,0,0,0,0,0,0,0,0,0,0,0,0,0,-2.0695,-2.0695,0,-2.069,-2.069,-2.069,-2.0652,-2.0652,-2.0651,-2.065,-2.0646,-2.0647,-2.0647,0,0,0,0,0,0,0,0,0,0,0,0,0,-2.0673,-2.0673,-2.0695,-2.0695,-2.0694,-2.069,-2.069,-2.069,-2.0653,-2.0652,-2.065,-2.0649,-2.0646,-2.0647,-2.0647,0,0,0,0,0,0,0,0,0,0,0,0,0,-2.0677,-2.0674,-2.0695,-2.0675,-2.0674,-2.069,-2.069,-2.069,-2.0653,-2.0651,-2.065,-2.0649,-2.0645,-2.0646,-2.0648,-2.0682,0,0,-2.0651,-2.0652,0,0,0,0,0,0,0,0,-2.0676,-2.0677,-2.0678,-2.0677,-2.0675,-2.067,-2.0681,-2.0687,-2.0653,-2.0661,-2.065,-2.0648,-2.0655,-2.0655,-2.0658,-2.0682,-2.0682,-2.0651,-2.0652,-2.0652,-2.0653,0,0,0,0,0,0,0,-2.0676,-2.0677,-2.0693,-2.0678,-2.0676,-2.0667,-2.0666,-2.0682,-2.0666,-2.066,-2.0657,-2.0657,-2.0654,-2.0657,-2.0657,-2.0682,-2.0651,-2.0652,-2.0653,-2.0653,-2.0735,-2.0737,0,0,0,0,0,0,-2.0678,-2.0677,-2.0693,-2.0693,-2.0672,-2.0669,-2.0668,-2.0673,-2.0666,-2.0663,-2.0658,-2.0655,-2.0655,-2.0656,-2.0657,-2.0697,-2.0652,-2.0653,-2.0654,-2.0734,-2.0735,-2.0737,0,0,0,0,0,0,-2.0678,-2.068,-2.0693,-2.0684,-2.0685,-2.0671,-2.0677,-2.0674,-2.0676,-2.0664,-2.0661,-2.0664,-2.0654,-2.0655,-2.0676,-2.0696,-2.0654,-2.0655,-2.0732,-2.0734,-2.0736,-2.0777,0,0,0,0,0,0,-2.0678,-2.068,-2.0693,-2.0685,-2.0686,-2.0712,-2.0678,-2.0675,-2.0678,-2.0674,-2.0669,-2.0666,-2.0653,-2.0675,-2.0677,-2.0697,-2.0656,-2.073,-2.0733,-2.0736,-2.0774,-2.078,-2.0786,0,0,0,0,0,-2.0677,-2.0705,-2.0694,-2.0696,-2.0701,-2.0713,-2.0714,-2.0698,-2.068,-2.0693,-2.0685,-2.0667,-2.0694,-2.0677,-2.068,-2.07,-2.0729,-2.0732,-2.0735,-2.0771,-2.0779,-2.0786,0,0,0,0,0,0,-2.0716,-2.0703,-2.0691,-2.0717,-2.0716,-2.0707,-2.0722,-2.0707,-2.0712,-2.0708,-2.0688,-2.0687,-2.0711,-2.0708,-2.069,-2.0734,-2.0708,-2.0712,-2.0734,-2.0742,-2.0748,-2.0748,-2.0657,0,0,0,0,0,-2.0727,-2.0737,-2.0726,-2.075,-2.0751,-2.0737,-2.0742,-2.0729,-2.0728,-2.0728,-2.0722,-2.0722,-2.073,-2.0736,-2.0743,-2.0774,-2.0772,-2.0789,-2.0795,-2.08,-2.0804,-2.0819,-2.0827,-2.0748,-2.0748,-2.0748,0,0,-2.0751,-2.0746,-2.0753,-2.0758,-2.0756,-2.0768,-2.0737,-2.075,-2.0759,-2.073,-2.0749,-2.0745,-2.0744,-2.0769,-2.078,-2.0767,-2.0825,-2.0805,-2.0809,-2.0809,-2.0823,-2.0831,-2.0838,-2.075,-2.075,-2.075,0,0,-2.08,-2.0797,-2.0816,-2.0815,-2.0813,-2.0804,-2.0809,-2.0802,-2.0798,-2.0817,-2.0796,-2.0806,-2.0821,-2.0821,-2.0823,-2.0873,-2.0856,-2.0876,-2.0907,-2.0923,-2.0929,-2.0934,-2.0952,-2.0958,-2.088,-2.088,-2.088,0,-2.083,-2.0845,-2.0829,-2.0843,-2.0846,-2.0821,-2.0841,-2.0841,-2.0841,-2.0844,-2.083,-2.0848,-2.0846,-2.0871,-2.0883,-2.0886,-2.0891,-2.0876,-2.093,-2.0935,-2.094,-2.0956,-2.0962,-2.0882,-2.0882,-2.0882,-2.0882,0,-2.0882,-2.0894,-2.091,-2.091,-2.0915,-2.0933,-2.0919,-2.0926,-2.0914,-2.0906,-2.0926,-2.0923,-2.0928,-2.0934,-2.0922,-2.0958,-2.095,-2.0933,-2.0907,-2.095,-2.0965,-2.0971,-2.0886,-2.0885,-2.0884,-2.0884,0,0,-2.0953,-2.0945,-2.0951,-2.0951,-2.0948,-2.0956,-2.0973,-2.0979,-2.0985,-2.0987,-2.1,-2.1014,-2.0999,-2.1001,-2.0989,-2.1003,-2.1043,-2.0985,-2.0984,-2.0995,-2.1081,-2.1093,-2.11,-2.1032,-2.1033,-2.1034,-2.1081,0,-2.1,-2.1027,-2.1012,-2.1041,-2.1052,-2.1029,-2.1043,-2.1043,-2.1037,-2.1045,-2.1039,-2.1049,-2.1028,-2.1029,-2.1042,-2.1035,-2.106,-2.1032,-2.1044,-2.1045,-2.1043,-2.1108,-2.112,-2.1164,-2.1087,-2.1087,-2.1088,0,-2.1057,-2.106,-2.109,-2.1085,-2.1089,-2.1102,-2.1106,-2.1115,-2.1114,-2.1109,-2.1112,-2.1097,-2.1114,-2.1089,-2.1111,-2.1093,-2.1097,-2.1095,-2.1096,-2.1096,-2.1068,-2.1108,-2.1178,-2.1184,-2.1097,-2.1097,-2.1096,0,-2.1105,-2.1118,-2.1137,-2.1138,-2.1132,-2.1142,-2.114,-2.1138,-2.1143,-2.1147,-2.115,-2.1156,-2.1159,-2.1165,-2.1152,-2.1136,-2.1176,-2.1151,-2.1172,-2.1172,-2.118,-2.1179,-2.125,-2.1185,-2.1185,-2.1185,-2.1185,0,-2.1157,-2.1176,-2.1158,-2.117,-2.1191,-2.1175,-2.1197,-2.1192,-2.1191,-2.1202,-2.1183,-2.1194,-2.1178,-2.1187,-2.1178,-2.1198,-2.12,-2.1196,-2.1193,-2.1197,-2.1197,-2.1198,-2.1194,-2.1187,-2.1187,-2.1186,-2.1186,0,-2.1214,-2.1203,-2.1222,-2.1215,-2.1214,-2.123,-2.1224,-2.1235,-2.1228,-2.1242,-2.1245,-2.1234,-2.1244,-2.1233,-2.1242,-2.1236,-2.1262,-2.1256,-2.1262,-2.126,-2.1281,-2.1279,-2.1355,-2.1363,-2.1294,-2.1295,-2.1295,0,-2.1247,-2.1261,-2.1256,-2.1262,-2.1261,-2.1271,-2.1275,-2.1261,-2.1266,-2.1267,-2.1278,-2.1286,-2.1292,-2.131,-2.1303,-2.131,-2.1303,-2.1329,-2.1304,-2.1307,-2.1302,-2.1301,-2.1302,-2.1333,-2.1334,-2.1335,-2.1335,0,-2.1308,-2.1301,-2.1308,-2.1314,-2.1319,-2.1323,-2.1325,-2.1331,-2.1316,-2.1323,-2.1333,-2.1338,-2.1348,-2.1356,-2.1362,-2.136,-2.1345,-2.1344,-2.1349,-2.1352,-2.1355,-2.1353,-2.1275,-2.1342,-2.1341,-2.1341,-2.134,-2.134,-2.1353,-2.1364,-2.1362,-2.1371,-2.1371,-2.1373,-2.1383,-2.1378,-2.1386,-2.1392,-2.1383,-2.1396,-2.1395,-2.1401,-2.1401,-2.1411,-2.14,-2.1408,-2.1409,-2.1411,-2.1414,-2.1355,-2.1412,-2.1412,-2.1412,-2.1412,-2.1411,0,-2.1412,-2.1409,-2.1417,-2.1421,-2.1428,-2.1413,-2.1415,-2.1422,-2.1433,-2.1434,-2.144,-2.1451,-2.146,-2.1454,-2.1462,-2.147,-2.1464,-2.1473,-2.1471,-2.1471,-2.1424,-2.1418,-2.1478,-2.1478,-2.1478,-2.1478,-2.1478,-2.1478,-2.1443,-2.1461,-2.1455,-2.1473,-2.1471,-2.1483,-2.1485,-2.1487,-2.1488,-2.1502,-2.1508,-2.1505,-2.1503,-2.151,-2.1517,-2.1515,-2.1519,-2.153,-2.1526,-2.1481,-2.1475,-2.1468,-2.1463,-2.1531,-2.1531,-2.1572,-2.1572,-2.1573]},{"header":{"parameterUnit":"m.s-1","parameterCategory":1,"la1":30.2991,"la2":30.254,"lo1":-89.0895,"lo2":-89.0444,"dy":0.0017,"dx":0.0017,"nx":28,"ny":28,"refTime":"2025-09-03T09:00:00:Z","depth":0,"parameterNumber":3,"parameterNumberName":"V-component_of_WINDS"},"data":[0,0,0,0,0,0,0,0,0,0,0,0,0,0,0,0,0,0,0,0,0,0,0,0,0,0,0,0,0,0,0,0,0,0,0,0,0,0,0,0,0,0,0,0,0,0,0,0,0,0,0,0,0,0,0,0,0,0,3.356,3.356,0,3.3562,3.3562,3.3562,3.3567,3.3567,3.3567,3.3567,3.3569,3.3569,3.3569,0,0,0,0,0,0,0,0,0,0,0,0,0,3.3558,3.3558,3.356,3.356,3.356,3.3562,3.3562,3.3562,3.3567,3.3567,3.3567,3.3567,3.3569,3.3569,3.3569,0,0,0,0,0,0,0,0,0,0,0,0,0,3.3559,3.3558,3.356,3.3562,3.3563,3.3562,3.3562,3.3562,3.3567,3.3567,3.3567,3.3567,3.3569,3.3569,3.3569,3.3565,0,0,3.3568,3.3568,0,0,0,0,0,0,0,0,3.3559,3.3559,3.3562,3.3562,3.3563,3.3564,3.3562,3.3563,3.3567,3.3565,3.3567,3.3567,3.3567,3.3567,3.3567,3.3565,3.3565,3.3568,3.3568,3.3568,3.3568,0,0,0,0,0,0,0,3.3559,3.3559,3.3561,3.3562,3.3562,3.3563,3.3563,3.3562,3.3565,3.3565,3.3566,3.3566,3.3567,3.3567,3.3567,3.3565,3.3568,3.3568,3.3568,3.3568,3.356,3.356,0,0,0,0,0,0,3.3559,3.3559,3.3561,3.3561,3.3561,3.3563,3.3563,3.3564,3.3565,3.3566,3.3566,3.3566,3.3567,3.3567,3.3567,3.3563,3.3568,3.3568,3.3568,3.356,3.356,3.3559,0,0,0,0,0,0,3.3559,3.3559,3.356,3.356,3.356,3.3563,3.3563,3.3564,3.3564,3.3566,3.3566,3.3566,3.3567,3.3567,3.3566,3.3563,3.3568,3.3568,3.356,3.356,3.356,3.3554,0,0,0,0,0,0,3.3559,3.3559,3.3558,3.356,3.356,3.3559,3.3563,3.3564,3.3564,3.3564,3.3565,3.3566,3.3568,3.3566,3.3565,3.3563,3.3568,3.356,3.356,3.356,3.3555,3.3554,3.3553,0,0,0,0,0,3.3559,3.3556,3.3558,3.3558,3.3559,3.3559,3.3559,3.3561,3.3563,3.3562,3.3563,3.3566,3.3563,3.3565,3.3565,3.3563,3.356,3.356,3.356,3.3555,3.3554,3.3553,0,0,0,0,0,0,3.3554,3.3557,3.3558,3.3557,3.3558,3.356,3.3558,3.356,3.356,3.3561,3.3563,3.3564,3.3561,3.3562,3.3564,3.3559,3.3562,3.3562,3.3559,3.3558,3.3557,3.3557,3.3568,0,0,0,0,0,3.3553,3.3552,3.3555,3.3553,3.3554,3.3556,3.3556,3.3558,3.3558,3.3559,3.356,3.356,3.3559,3.3559,3.3558,3.3555,3.3555,3.3553,3.3552,3.3552,3.3551,3.3548,3.3547,3.3558,3.3558,3.3558,0,0,3.355,3.3552,3.3551,3.3552,3.3553,3.3552,3.3556,3.3555,3.3555,3.3558,3.3556,3.3557,3.3558,3.3555,3.3554,3.3555,3.3548,3.3551,3.3551,3.355,3.3548,3.3547,3.3546,3.3558,3.3558,3.3558,0,0,3.3545,3.3546,3.3545,3.3545,3.3547,3.3548,3.3548,3.3549,3.355,3.3548,3.3551,3.355,3.3549,3.3549,3.3549,3.3543,3.3544,3.3542,3.3538,3.3536,3.3535,3.3534,3.3531,3.353,3.3542,3.3542,3.3542,0,3.3541,3.3541,3.3544,3.3543,3.3543,3.3546,3.3544,3.3545,3.3545,3.3545,3.3547,3.3545,3.3546,3.3542,3.3541,3.3541,3.354,3.3542,3.3535,3.3534,3.3533,3.3531,3.353,3.3542,3.3542,3.3542,3.3542,0,3.3536,3.3536,3.3534,3.3535,3.3535,3.3533,3.3535,3.3535,3.3536,3.3537,3.3535,3.3536,3.3535,3.3535,3.3536,3.3531,3.3532,3.3534,3.3538,3.3532,3.3529,3.3528,3.3541,3.3541,3.3541,3.3541,0,0,3.3528,3.353,3.353,3.353,3.3531,3.353,3.3529,3.3528,3.3527,3.3527,3.3526,3.3524,3.3526,3.3526,3.3527,3.3525,3.3519,3.3528,3.3528,3.3525,3.3513,3.3511,3.351,3.3521,3.3521,3.352,3.3513,0,3.3523,3.352,3.3523,3.352,3.3519,3.3522,3.352,3.352,3.3521,3.352,3.3521,3.3519,3.3522,3.3522,3.352,3.3521,3.3517,3.3521,3.3518,3.3518,3.3517,3.3509,3.3506,3.3499,3.3512,3.3512,3.3512,0,3.3516,3.3516,3.3513,3.3514,3.3514,3.3512,3.3512,3.3511,3.3511,3.3511,3.3511,3.3513,3.351,3.3513,3.351,3.3513,3.3511,3.3511,3.3511,3.351,3.3514,3.3507,3.3497,3.3496,3.351,3.351,3.351,0,3.351,3.3509,3.3507,3.3507,3.3508,3.3507,3.3507,3.3507,3.3507,3.3506,3.3505,3.3504,3.3503,3.3502,3.3503,3.3506,3.3499,3.3503,3.3499,3.3499,3.3497,3.3497,3.3486,3.3497,3.3497,3.3497,3.3497,0,3.3504,3.3501,3.3504,3.3503,3.35,3.3502,3.3499,3.35,3.35,3.3498,3.3501,3.3499,3.3501,3.3499,3.3499,3.3496,3.3495,3.3495,3.3495,3.3495,3.3495,3.3494,3.3494,3.3497,3.3497,3.3497,3.3497,0,3.3496,3.3498,3.3496,3.3497,3.3497,3.3495,3.3495,3.3494,3.3494,3.3492,3.3492,3.3493,3.349,3.3491,3.3489,3.349,3.3484,3.3486,3.3484,3.3485,3.348,3.348,3.3468,3.3466,3.3479,3.3479,3.3479,0,3.3492,3.349,3.3491,3.349,3.349,3.3489,3.3488,3.349,3.3489,3.3488,3.3486,3.3484,3.3483,3.3479,3.3479,3.3477,3.3478,3.3473,3.3477,3.3476,3.3477,3.3476,3.3476,3.3472,3.3472,3.3472,3.3472,0,3.3483,3.3484,3.3483,3.3482,3.3481,3.3481,3.348,3.3479,3.3481,3.348,3.3477,3.3476,3.3474,3.3471,3.3469,3.3469,3.347,3.3471,3.347,3.3469,3.3468,3.3467,3.3482,3.3471,3.3471,3.3471,3.3471,3.3471,3.3477,3.3475,3.3475,3.3474,3.3474,3.3473,3.3471,3.3472,3.347,3.3468,3.3469,3.3466,3.3465,3.3463,3.3462,3.3459,3.3461,3.346,3.3459,3.3458,3.3457,3.3469,3.3459,3.3459,3.3459,3.3459,3.3459,0,3.3468,3.3468,3.3467,3.3466,3.3464,3.3467,3.3466,3.3464,3.3462,3.3461,3.3459,3.3456,3.3454,3.3454,3.3451,3.3449,3.3449,3.3448,3.3448,3.3447,3.3457,3.3458,3.3447,3.3447,3.3447,3.3447,3.3447,3.3447,3.3463,3.346,3.3461,3.3457,3.3457,3.3455,3.3454,3.3453,3.3452,3.3449,3.3447,3.3447,3.3446,3.3443,3.3441,3.344,3.3439,3.3437,3.3437,3.3446,3.3447,3.3448,3.3449,3.3437,3.3437,3.3428,3.3428,3.3428]}]]